Regional Weather Roundup
Issued by NWS

Home | Current Version | Previous Version | Graphics & Text | Print | Product List | Glossary On
Versions: 1 2 3 4 5 6 7 8 9 10 11 12 13 14 15 16 17 18 19 20 21 22 23 24 25 26 27 28 29 30 31 32 33 34 35 36 37 38 39 40 41 42 43 44 45 46 47 48 49 50
559
ASUS43 KMKX 260011
RWRWI

WISCONSIN REGIONAL WEATHER ROUNDUP
NATIONAL WEATHER SERVICE MILWAUKEE/SULLIVAN WI
600 PM CST SAT FEB 25 2017

NOTE: "FAIR" INDICATES FEW OR NO CLOUDS BELOW 12,000 FEET WITH NO
SIGNIFICANT WEATHER AND/OR OBSTRUCTIONS TO VISIBILITY.

WIZ001-002-006>008-014>016-023>028-260100-
NORTHWEST WISCONSIN

CITY           SKY/WX    TMP DP  RH WIND       PRES   REMARKS
SUPERIOR ARPT  CLOUDY    29  15  56 SW8       29.79F WCI  21
6HR MIN TEMP:  23; 6HR MAX TEMP:  30;

ASHLAND        CLEAR     25  12  58 W8        29.80S WCI  16
6HR MIN TEMP:  22; 6HR MAX TEMP:  28;

HAYWARD        CLEAR     28  10  46 SW7       29.80S WCI  21
6HR MIN TEMP:  21; 6HR MAX TEMP:  30;

SIREN          MOCLDY    29  16  56 W8        29.83S WCI  21
6HR MIN TEMP:  25; 6HR MAX TEMP:  31;

CUMBERLAND     MOCLDY    28  14  54 SW8       29.82F WCI  20
RICE LAKE      MOCLDY    28  14  56 CALM      29.85F
6HR MIN TEMP:  23; 6HR MAX TEMP:  30;

CHETEK         MOCLDY    27  13  54 SW3       29.85F
6HR MIN TEMP:  22; 6HR MAX TEMP:  29;

LADYSMITH      PTCLDY    26  10  52 SW7       29.84F WCI  18
6HR MIN TEMP:  20; 6HR MAX TEMP:  28;

EAU CLAIRE     CLOUDY    26  12  55 SW13      29.88S WCI  15
6HR MIN TEMP:  20; 6HR MAX TEMP:  27;

MENOMONIE      CLOUDY    29  13  52 SW9       29.88S WCI  21
6HR MIN TEMP:  22; 6HR MAX TEMP:  30;

NEW RICHMOND   CLOUDY    30  16  55 SW9       29.86S WCI  22
6HR MIN TEMP:  26; 6HR MAX TEMP:  33;

OSCEOLA        CLOUDY    31  19  60 SW10      29.88S WCI  22
6HR MIN TEMP:  27; 6HR MAX TEMP:  34;

$$

WIZ003>005-009-010-017-018-260100-
NORTH CENTRAL WISCONSIN

CITY           SKY/WX    TMP DP  RH WIND       PRES   REMARKS
MANITOWISH WTR CLEAR     14   8  79 CALM      29.75S
6HR MIN TEMP:  14; 6HR MAX TEMP:  21;

ARBOR VITAE    CLEAR     22  11  63 CALM        N/A
6HR MIN TEMP:  17; 6HR MAX TEMP:  24;

WOODRUFF       CLEAR     22  11  63 CALM        N/A
6HR MIN TEMP:  17; 6HR MAX TEMP:  24;

RHINELANDER    CLEAR     19   6  57 W8        29.77R WCI   9
6HR MIN TEMP:  17; 6HR MAX TEMP:  24; 6HR PCP: TRACE;

EAGLE RIVER    CLEAR     18   7  62 W5        29.75S WCI  11
6HR MIN TEMP:  16; 6HR MAX TEMP:  21;

LAND O LAKES   CLEAR     18  11  74 W3        29.76S
6HR MIN TEMP:  17; 6HR MAX TEMP:  21;

PHILLIPS       CLEAR     22   8  54 SW6       29.79R WCI  15
6HR MIN TEMP:  14; 6HR MAX TEMP:  25;

TOMAHAWK       CLEAR     20   8  58 CALM      29.80R
6HR MIN TEMP:  16; 6HR MAX TEMP:  25;

MEDFORD        CLEAR     20   6  55 SW8       29.83R WCI  10
6HR MIN TEMP:  14; 6HR MAX TEMP:  24;

MERRILL        NOT AVBL
$$

WIZ029-030-035-036-043>047-260100-
CENTRAL WISCONSIN

CITY           SKY/WX    TMP DP  RH WIND       PRES   REMARKS
WAUSAU         CLEAR     21   7  54 W14       29.83R WCI   8
6HR MIN TEMP:  16; 6HR MAX TEMP:  23;

MOSINEE        CLEAR     19   9  63 W10       29.86R WCI   8
MARSHFIELD     CLEAR     20   7  57 W8        29.86R WCI  10
6HR MIN TEMP:  16; 6HR MAX TEMP:  23; 6HR PCP: TRACE;

STEVENS POINT  CLEAR     21   7  54 W8        29.87R WCI  11
6HR MIN TEMP:  15; 6HR MAX TEMP:  22;

WAUPACA        CLEAR     21   8  56 W8        29.89S WCI  12
6HR MIN TEMP:  21; 6HR MAX TEMP:  25;

WAUTOMA        CLEAR     18   9  68 W9        29.92R WCI   7
6HR MIN TEMP:  18; 6HR MAX TEMP:  24;

WISC RAPIDS    CLEAR     22   8  55 W9        29.90R WCI  12
6HR MIN TEMP:  17; 6HR MAX TEMP:  25;

CAMP DOUGLAS   CLEAR     20   8  60 W7        29.92R WCI  11
6HR MIN TEMP:  19; 6HR MAX TEMP:  25;

$$

WIZ011>013-019>022-031-037>040-048>050-260100-
NORTHEAST WISCONSIN

CITY           SKY/WX    TMP DP  RH WIND       PRES   REMARKS
ANTIGO         CLEAR     17   4  57 W7        29.80R WCI   8
6HR MIN TEMP:  17; 6HR MAX TEMP:  21;

SHAWANO        CLEAR     22   9  58 SW3       29.86S
6HR MIN TEMP:  22; 6HR MAX TEMP:  25;

OCONTO         CLEAR     20  10  63 SW7       29.86R WCI  11
6HR MIN TEMP:  20; 6HR MAX TEMP:  25;

STURGEON BAY   CLEAR     20  12  71 W10       29.85R WCI   9
6HR MIN TEMP:  20; 6HR MAX TEMP:  26; 6HR PCP: TRACE;

GREEN BAY      CLEAR     20  10  65 SW7       29.88R WCI  11
6HR MIN TEMP:  20; 6HR MAX TEMP:  24; 6HR PCP: TRACE;

MANITOWOC      PTCLDY    19  10  68 W15       29.89R WCI   5
6HR MIN TEMP:  19; 6HR MAX TEMP:  24; 6HR PCP: TRACE;

APPLETON       PTCLDY    19   7  58 W9        29.87R WCI   9
CLINTONVILLE   CLEAR     21   9  58 SW8       29.87R WCI  12
OSHKOSH        CLEAR     20   8  60 W3        29.90R
6HR MIN TEMP:  20; 6HR MAX TEMP:  22; 6HR PCP: TRACE;

$$

WIZ032>034-041-042-053>061-260100-
SOUTHWEST WISCONSIN

CITY           SKY/WX    TMP DP  RH WIND       PRES   REMARKS
LA CROSSE      CLEAR     26  11  52 W9        29.96S WCI  17
6HR MIN TEMP:  23; 6HR MAX TEMP:  29;

SPARTA         CLEAR     23  11  60 SW3       29.95S
6HR MIN TEMP:  21; 6HR MAX TEMP:  27;

VIROQUA        CLEAR     21  11  65 W12       29.93S WCI   9
6HR MIN TEMP:  20; 6HR MAX TEMP:  24;

BOSCOBEL       CLEAR     26  12  55 W6        29.98S WCI  19
6HR MIN TEMP:  24; 6HR MAX TEMP:  29;

PRAIRIE DU CHI CLEAR     25  12  58 W7        30.00S WCI  17
6HR MIN TEMP:  22; 6HR MAX TEMP:  28;

PLATTEVILLE    CLEAR     23  16  72 W8        29.98R WCI  14
6HR MIN TEMP:  22; 6HR MAX TEMP:  26;

$$

WIZ056-057-062-063-064-067-068-260100-
SOUTH CENTRAL WISCONSIN

CITY           SKY/WX    TMP DP  RH WIND       PRES   REMARKS
REEDSBURG      CLEAR     23  11  59 W8        29.94R WCI  14
6HR MIN TEMP:  18; 6HR MAX TEMP:  25;

BARABOO/DELLS  CLEAR     22  10  59 W3        29.93R
6HR MIN TEMP:  18; 6HR MAX TEMP:  24;

LONE ROCK      CLEAR     24  12  60 W7        29.97R WCI  16
6HR MIN TEMP:  22; 6HR MAX TEMP:  27;

MINERAL POINT  CLEAR     25  18  74 W3        29.94S
MADISON        MOCLDY    22  13  68 W5        29.94R WCI  16
6HR MIN TEMP:  18; 6HR MAX TEMP:  25; 6HR PCP: TRACE;

MIDDLETON      CLEAR     21  16  78 W3        29.95R
6HR MIN TEMP:  21; 6HR MAX TEMP:  26;

WATERTOWN      CLEAR     21  12  67 W5        29.93R WCI  15
6HR MIN TEMP:  17; 6HR MAX TEMP:  23;

MONROE         CLEAR     25  14  63 W10       29.94S WCI  15
JANESVILLE     PTCLDY    25  12  58 NW8       29.95R WCI  16
$$

WIZ051-052-058>065-066-070>072-260100-
SOUTHEAST WISCONSIN

CITY           SKY/WX    TMP DP  RH WIND       PRES   REMARKS
MILWAUKEE      PTCLDY    24  11  57 W8        29.93R WCI  15
6HR MIN TEMP:  20; 6HR MAX TEMP:  25; 6HR PCP: TRACE;

WAUKESHA       CLEAR     19  10  68 W14       29.93R WCI   6
MILWAUKEE/TIMM CLEAR     21  10  63 W10       29.93R WCI  10
RACINE         PTCLDY    23  11  60 NW12G20   29.95S WCI  12
6HR MIN TEMP:  19; 6HR MAX TEMP:  24; 6HR PCP: TRACE;

KENOSHA        PTCLDY    23  13  65 W10       29.94R WCI  12
6HR MIN TEMP:  20; 6HR MAX TEMP:  24; 6HR PCP: TRACE;

FOND DU LAC    CLEAR     21   9  59 SW5       29.91R WCI  15
6HR MIN TEMP:  20; 6HR MAX TEMP:  23; 6HR PCP: TRACE;

SHEBOYGAN      CLEAR     20  11  68 W14       29.89R WCI   7
6HR MIN TEMP:  20; 6HR MAX TEMP:  22; 6HR PCP: TRACE;

WEST BEND      CLEAR     21  16  79 W5        29.91R WCI  15
JUNEAU         CLEAR     20  11  69 W5        29.93R WCI  13
6HR MIN TEMP:  17; 6HR MAX TEMP:  22;

$$

LSZ147-162-260100-
LAKE SUPERIOR

STATION/POSITION TIME  TEMP    WIND        PRES    WAVE
                       AIR SEA DIR/SP/G            HT/PER
                 (UTC) (F)     (DEG/KT/KT) (MB)    (FT/S)
DEVILS ISLAND    0000   27     260/ 22/ 26 1009.4S
PORT WING        2340   26     210/  5/  8 1009.1F
SAXON HARBOR     2330   26     280/  3/  7 1009.5S
$$

LMZ867-665-643>646-260100-
LAKE MICHIGAN

STATION/POSITION TIME  TEMP    WIND        PRES    WAVE
                       AIR SEA DIR/SP/G            HT/PER
                 (UTC) (F)     (DEG/KT/KT) (MB)    (FT/S)
CHAMBERS ISLAND  2140   26      CALM  /  2 1007.8
NORTHPORT PIER   2340   24     280/  1/  2 1009.1R
SISTER BAY



USA.gov is the U.S. government's official web portal to all federal, state and local government web resources and services.